Location: Headcorn
(51.1500°N, 0.6167°E)
Time: 00:51:56
(UTC+00:00)

Daily predictions for brighter satellites

Satellite Brightness Start Highest point End
(mag) Time Altitude Azimuth Time Altitude Azimuth Time Altitude Azimuth
CENTAUR R/B 4.5 02:05:13 28° NNE 02:05:13 28° NNE 02:09:36 10° NE
ACS3 Solar Sail 4.0 02:00:54 10° NE 02:03:45 18° ENE 02:03:45 18° ENE
ADEOS Rocket 4.4 02:33:19 10° NNE 02:38:45 38° E 02:38:45 38° E
Cosmos 2219 Rocket 4.0 02:55:05 28° E 02:55:05 28° E 02:58:49 10° NE
CZ-2D R/B 4.4 03:13:30 10° N 03:14:23 15° N 03:14:23 15° N
USA 267 3.6 03:14:13 10° ENE 03:20:18 55° SE 03:20:18 55° SE
Cosmos 1980 Rocket 4.3 03:27:56 17° N 03:27:56 17° N 03:29:37 10° NNE
H-2A R/B 3.9 03:26:19 10° NNE 03:28:05 22° NNE 03:28:05 22° NNE
Cosmos 2278 Rocket 3.7 03:29:48 26° N 03:31:45 32° NE 03:36:46 10° ESE
USA 238 DEB 4.0 03:33:04 52° N 03:33:04 52° N 03:38:44 10° NE
USA 238 4.0 03:33:10 53° N 03:33:10 53° N 03:38:50 10° NE
Cosmos 2333 Rocket 3.1 03:39:30 41° NNE 03:39:30 41° NNE 03:43:13 10° NNE
ADEOS II 4.1 03:38:29 10° N 03:39:55 19° N 03:39:55 19° N
Lacrosse 5 rocket 4.0 03:46:58 13° ENE 03:46:58 13° ENE 03:47:25 10° ENE
COSMOS 2455 3.1 03:45:06 61° NNE 03:45:06 61° NNE 03:50:06 10° NE
Cosmos 2298 Rocket 4.5 03:46:57 58° ENE 03:46:57 58° ENE 03:51:34 10° NNE
ACS3 Solar Sail 1.9 03:42:48 10° NNE 03:47:53 65° N 03:47:53 65° N
Resurs 1-4 Rocket 4.3 03:47:21 10° N 03:48:13 14° N 03:48:13 14° N
CENTAUR R/B 4.0 03:52:18 27° NNW 03:55:01 35° NNE 04:02:45 10° ENE
Cosmos 2360 Rocket 2.6 03:59:08 52° N 03:59:08 52° N 04:03:35 10° NNE
Cosmos 2322 Rocket 2.8 03:59:32 46° N 03:59:32 46° N 04:03:47 10° NNE
USA 234 3.2 03:52:29 10° SE 03:58:53 64° SSW 03:58:53 64° SSW
SL-16 R/B 3.3 04:06:02 31° N 04:06:02 31° N 04:09:37 10° NNE
Cosmos 44 Rocket 3.5 04:05:02 73° E 04:05:02 73° E 04:09:53 10° SE
Cosmos 1943 Rocket 2.8 04:06:17 28° N 04:09:00 51° NE 04:14:22 10° SE
H-2A R/B 4.4 04:08:21 10° NNE 04:11:15 41° ENE 04:11:15 41° ENE
Okean 1-7 3.6 04:13:10 50° NE 04:13:10 50° NE 04:16:32 10° NNE
ARGOS 3.1 04:09:14 10° NNE 04:14:42 86° ESE 04:16:17 48° SSW
PAYLOAD A 4.4 04:10:04 10° NNE 04:15:30 68° ESE 04:20:29 12° S
Cosmos 1140 Rocket 3.5 04:15:55 49° N 04:17:17 76° ENE 04:22:22 10° SSE
Timation 2 Rocket 4.1 04:14:48 25° NNW 04:18:59 78° ENE 04:25:26 10° SE
CZ-2C R/B 2.4 04:15:01 10° NNE 04:20:02 85° ESE 04:21:33 47° S
Cosmos 1809 Rocket 4.4 04:18:10 10° S 04:24:16 85° E 04:30:24 10° NNE
ADEOS Rocket 3.4 04:18:50 10° N 04:25:00 51° WNW 04:25:40 50° W
NOSS 3-1 (C) 3.5 04:27:25 33° S 04:29:24 57° SE 04:35:00 10° NE
Iridium 4 Rocket 4.3 04:26:45 10° N 04:30:55 40° E 04:34:52 10° SSE
SJ 16-02 3.8 04:27:59 10° N 04:31:03 19° NE 04:34:06 10° E
Cosmos 2100 Rocket 3.8 04:25:07 10° N 04:31:18 86° W 04:37:28 10° S
Cosmos 2219 Rocket 2.2 04:36:49 53° W 04:37:35 57° NW 04:43:13 10° NNE
IRS-1D 4.5 04:35:13 10° NNE 04:40:01 46° E 04:44:44 10° S
SL-24 R/B - RUBIN 2 3.8 04:39:23 55° WSW 04:40:26 73° NW 04:45:19 10° NE
TIMED 4.4 04:40:17 52° NNW 04:41:19 86° ENE 04:45:34 10° SSE
Cosmos 1707 Rocket 4.2 04:42:43 41° NNW 04:42:43 41° NNW 04:45:52 10° N
COSMOS 2428 2.9 04:41:47 10° SSW 04:47:27 74° ESE 04:53:09 10° NNE
USA 59 Rocket -0.7 04:50:48 70° ESE 04:50:48 70° ESE 04:53:42 10° NE
SL-08 RB Rocket 3.6 04:47:07 10° N 04:51:39 62° WNW 04:53:29 34° SW
Cosmos 1459 Rocket 3.9 04:46:10 10° NNW 04:52:30 70° W 04:58:47 10° S
Cosmos 1864 Rocket 4.4 04:47:07 10° N 04:53:25 86° W 04:59:45 10° S
Cosmos 2322 3.6 04:50:01 14° SSW 04:54:54 88° WNW 05:00:38 10° NNE
FengYun 1-2 T 4.3 04:51:03 10° NNE 04:56:38 80° ESE 05:02:14 10° SSW
CZ-2D R/B 4.3 04:55:19 10° NNW 04:55:38 11° NNW 04:55:38 11° NNW
Cosmos 407 Rocket 3.4 04:54:46 14° NNW 04:59:14 88° ENE 05:04:20 10° SSE
COSMO-SKYMED 1 2.9 04:55:27 10° SSE 04:59:31 61° ENE 05:03:36 10° N
Meteor 2-21 4.3 04:53:51 10° SSW 04:59:56 73° WNW 05:06:01 10° N
SKYMED 2 3.5 04:56:28 10° SSE 05:00:48 85° ENE 05:05:11 10° NNW
Cosmos 1727 Rocket 4.0 04:56:31 10° SSW 05:02:32 53° WNW 05:08:39 10° N
Cosmos 1725 Rocket 3.9 04:56:37 10° NNW 05:02:58 82° W 05:09:17 10° S
Cosmos 2228 Rocket 3.3 05:03:28 42° W 05:03:39 42° WNW 05:07:52 10° N
USA 267 3.3 04:57:19 10° ENE 05:03:50 71° NNW 05:07:39 27° W
H-2A R/B 3.6 05:06:39 10° NNW 05:08:34 17° NNW 05:08:34 17° NNW
Cosmos 1802 Rocket 4.0 05:04:30 10° NNW 05:10:51 67° W 05:17:04 10° S
Cosmos 1269 Rocket 4.5 05:09:27 29° WNW 05:11:15 38° WSW 05:16:06 10° S
Cosmos 1980 Rocket 4.4 05:10:07 10° NNW 05:11:22 11° NNW 05:12:37 10° N
NOSS 3-1 (A) 3.8 05:08:59 10° SSW 05:13:35 52° SE 05:19:08 10° NE
Cosmos 2233 Rocket 4.0 05:07:48 10° N 05:14:12 86° E 05:20:29 10° S
Cosmos 2278 Rocket 2.2 05:11:40 16° NW 05:16:12 62° WSW 05:21:45 10° SSE
Cosmos 1328 3.5 05:13:08 10° SSW 05:16:43 56° WNW 05:20:19 10° N
Cosmos 2251 Rocket 3.7 05:12:41 10° NNW 05:18:04 75° ENE 05:23:25 10° SSE
Cosmos 1703 Rocket 3.4 05:13:47 10° SSW 05:18:06 70° WNW 05:22:31 10° N
CZ-3 R/B 4.4 05:18:08 10° SSW 05:19:53 11° S 05:21:24 10° S
NOSS 2-1 (E) 2.6 05:18:52 27° SW 05:20:33 82° NW 05:23:37 10° NE
Cosmos 1939 Rocket 3.1 05:17:17 10° N 05:20:56 41° WNW 05:23:41 16° SW
Lacrosse 5 rocket 1.9 05:20:39 27° NW 05:21:26 31° N 05:24:30 10° ENE
Cosmos 2173 Rocket 4.3 05:16:05 10° NNW 05:21:43 40° W 05:27:19 10° SSW
ADEOS II 4.2 05:20:26 10° NNW 05:20:43 10° NNW 05:20:43 10° NNW
Meteor 2-16 Rocket 4.4 05:16:25 10° SSW 05:22:32 79° WNW 05:28:42 10° N
Cosmos 2333 Rocket 3.6 05:21:33 19° NW 05:22:49 21° NNW 05:27:05 10° NNE
USA-17 4.1 05:22:08 36° NW 05:23:15 78° SW 05:26:32 10° SE
Cosmos 2237 Rocket 2.7 05:17:57 10° SSW 05:23:32 62° ESE 05:29:08 10° NE
SL-08 R/B 4.4 05:19:00 10° NNW 05:25:04 70° W 05:31:11 10° S
BlueWalker 3 3.3 05:27:40 20° SW 05:28:09 21° SW 05:30:55 10° S
Cosmos 2292 Rocket 3.7 05:24:16 10° SSW 05:28:33 80° W 05:34:12 10° N
USA 276 4.2 05:29:39 11° SSW 05:29:39 11° SSW 05:30:16 10° SSW
COSMOS 2455 3.9 05:28:15 20° WNW 05:30:50 27° NNW 05:35:57 10° NNE
ACS3 Solar Sail 2.9 05:26:53 10° N 05:31:03 20° NW 05:32:02 19° WNW
Meteor 1-24 Rocket 3.7 05:27:37 10° SSW 05:33:17 58° WNW 05:38:48 10° N
Cosmos 2369 Rocket 3.5 05:28:35 10° NNW 05:33:51 38° NE 05:39:07 10° ESE
Helios 1A Rocket 2.8 05:30:45 10° S 05:33:58 39° W 05:36:22 16° NW
CZ-4 R/B 3.8 05:30:34 10° N 05:35:28 69° WNW 05:40:16 10° SSW
Cosmos 1782 Rocket 3.6 05:33:04 10° NNW 05:37:24 56° W 05:41:41 10° S
USA 234 4.5 05:38:03 10° S 05:42:53 22° SW 05:46:14 15° W
Cosmos 2360 Rocket 3.6 05:40:55 16° WNW 05:43:00 20° NNW 05:47:03 10° NNE
Cosmos 2322 Rocket 3.7 05:41:20 15° WNW 05:43:23 18° NNW 05:47:17 10° NNE
Cosmos 2123 Rocket 4.2 05:38:04 10° SSW 05:44:03 49° WNW 05:50:04 10° N
Meteor 2-5 Rocket 3.9 05:38:42 10° SSW 05:44:29 54° WNW 05:50:14 10° N
NOAA 12 4.1 05:39:26 10° N 05:44:44 67° WNW 05:50:01 10° SSW
Cosmos 1420 Rocket 4.4 05:40:29 10° SSW 05:45:42 70° ESE 05:51:00 10° NNE
Gbstr 26 Del rocket 3.7 05:41:19 13° WSW 05:45:52 80° SSE 05:52:11 10° ENE
CENTAUR R/B 3.7 05:39:32 10° NW 05:47:15 59° NE 05:56:19 10° ESE
Okean 1-7 4.4 05:49:34 17° WNW 05:49:50 17° WNW 05:52:36 10° NNW
SL-16 R/B 4.0 05:47:53 11° NW 05:50:09 14° NNW 05:52:59 10° N
TiPS 4.3 05:48:37 10° SW 05:51:01 87° NW 05:53:19 10° NE
Cosmos 1943 Rocket 2.9 05:47:50 11° NW 05:52:31 32° WSW 05:57:20 10° SSW
Cosmos 2016 Rocket 4.4 05:47:06 10° NNW 05:53:00 41° W 05:58:51 10° SSW
ARGOS 4.4 05:50:27 10° N 05:54:17 20° NW 05:57:45 11° W
Cosmos 1812 2.4 05:53:30 10° N 05:56:26 65° ENE 05:59:20 10° SSE
CZ-2C R/B 3.8 05:54:08 10° NNW 05:57:30 19° NW 06:00:45 11° W
Cosmos 1300 Rocket 4.2 05:53:54 10° NNW 05:57:47 32° W 06:01:37 10° SSW
Cosmos 374 Rocket 4.5 05:57:56 10° WSW 06:01:43 59° NW 06:06:14 10° NE
Cosmos 2346 Rocket 4.4 05:56:33 10° SSW 06:02:42 79° W 06:08:50 10° N
NOSS 2-1 (C) 3.6 06:00:52 13° W 06:03:17 30° NW 06:05:59 10° NNE
NOSS 2-1 (D) 3.7 06:04:54 12° W 06:07:18 27° NW 06:09:55 10° NNE
SJ 16-02 1.2 06:05:22 10° NNW 06:09:40 70° WSW 06:13:55 10° SSE
Iridium 4 Rocket 4.1 06:06:59 10° NNW 06:10:25 23° W 06:13:43 10° SW
Aureole 3 Rocket 3.3 06:06:37 10° NNW 06:10:44 68° W 06:16:23 10° S
Okean 1 Rocket 4.3 06:06:50 10° N 06:11:01 44° ENE 06:15:09 10° SSE
Cosmos 2061 Rocket 4.3 06:07:37 10° NNW 06:13:25 42° W 06:19:09 10° SSW
CBERS-1 4.1 06:09:43 10° NNE 06:14:54 88° W 06:20:00 10° SSW
SWARM C 4.5 06:14:18 10° SSW 06:17:35 64° W 06:20:55 10° N
SWARM A 4.1 06:14:22 10° S 06:17:40 76° W 06:21:02 10° N
IRS-1D 4.2 06:14:40 10° N 06:18:59 30° WNW 06:23:14 10° WSW
Cosmos 1190 Rocket 4.4 06:14:04 10° NW 06:19:06 45° WSW 06:24:03 10° S
Cosmos 676 Rocket 4.0 06:14:56 10° NNW 06:20:11 69° WSW 06:25:20 10° SSE
Cosmos 1378 Rocket 3.7 06:16:01 10° S 06:20:17 79° E 06:24:35 10° NNE
NOSS 3-1 (C) 3.7 06:15:35 10° W 06:20:23 40° NNW 06:26:17 10° NE
Cosmos 1869 3.5 06:18:12 10° NNW 06:21:27 36° W 06:24:40 10° SSW
SL-16 R/B 3.2 06:16:18 10° S 06:21:48 54° ESE 06:27:21 10° NE
In-Cosmos 22 Rocket 4.3 06:16:57 10° SSW 06:22:46 83° WNW 06:28:37 10° NNE
Cosmos 2219 Rocket 3.7 06:19:01 10° WNW 06:22:48 18° NNW 06:26:35 10° NNE
Cosmos 2056 Rocket 3.6 06:21:12 10° SSW 06:26:36 89° W 06:32:03 10° NNE
Okean 2 Rocket 3.3 06:24:22 10° N 06:28:46 78° E 06:33:08 10° SSE
Cosmos 371 Rocket 3.5 06:25:36 10° NNW 06:30:20 53° WSW 06:35:02 10° S
NOSS 0 Rocket 4.3 06:24:51 10° WSW 06:30:39 42° NW 06:36:31 10° NNE
COSMOS 2428 3.6 06:27:24 10° W 06:32:15 28° NW 06:37:08 10° NNE
